Location: Buckeye Ditch
(40.9104°N, 122.9517°W)
Time: 15:50:35
(UTC+00:00)

A-11 Canister half - Pass Details

Date: 18 May 2025
Orbit: 1515 x 1684 km, 47.2° (Epoch: 14 June)

Event Time Altitude Azimuth Distance (km) Brightness Sun altitude
Exits shadow 06:44:34 35° 116° (ESE) 2,315 9.5 -26.4°
Drops below altitude 10° 06:51:20 10° 72° (ENE) 3,698 11.0 -26.9°
Sets 06:54:38 0° 64° (ENE) 4,671 11.6 -27.1°
